Tracking 29967 objects as of 5-Dec-2024
HD Live streaming from Space Station
objects crossing your sky now

DELTA 1 DEB

Track DELTA 1 DEB now!
10-day predictions


NORAD ID: 28266
Int'l Code: 1968-055L
Perigee: 767.2 km
Apogee: 3,810.0 km
Inclination: 120.7 °
Period: 133.7 minutes
Semi major axis: 8659 km
RCS: 0.003 m2 (small)
Launch date: July 4, 1968
Source: United States (US)
Launch site: AIR FORCE WESTERN TEST RANGE (AFWTR)

Note: This is SATELLITE DEBRIS
Your satellite tracking list
Your tracking list is empty




NASA's NSSDC Master Catalog

Two Line Element Set (TLE):
1 28266U 68055L   24337.84072326  .00006335  00000-0  14993-1 0  9993
2 28266 120.6813   6.6636 1756894 191.2337 164.3739 10.77346223823641
Source of the keplerian elements: AFSPC